Time,TemperatureF,DewpointF,PressureIn,WindDirection,WindDirectionDegrees,WindSpeedMPH,WindSpeedGustMPH,Humidity,HourlyPrecipIn,Conditions,Clouds,dailyrainin,SolarRadiationWatts/m^2,SoftwareType,DateUTC
2013-12-29 00:02:00,36.0,36.0,-100.00,North,-999,0.0,0.0,100,0.05,,,0.12,0.000000,,2013-12-29 05:02:00,
2013-12-29 00:12:00,36.0,36.0,-100.00,North,-999,0.0,0.0,100,0.05,,,0.12,0.000000,,2013-12-29 05:12:00,
2013-12-29 00:43:00,36.0,36.0,-100.00,North,-999,0.0,4.0,100,0.05,,,0.17,0.000000,,2013-12-29 05:43:00,
2013-12-29 00:53:00,36.0,36.0,-100.00,North,-999,0.0,4.0,100,0.05,,,0.17,0.000000,,2013-12-29 05:53:00,
2013-12-29 01:02:00,36.0,36.0,-100.00,North,-999,0.0,4.0,100,0.05,,,0.17,0.000000,,2013-12-29 06:02:00,
2013-12-29 03:42:00,42.0,42.0,-100.00,WNW,295,3.0,8.0,100,0.13,,,0.49,0.000000,,2013-12-29 08:42:00,
2013-12-29 03:52:00,42.0,42.0,-100.00,WNW,295,3.0,8.0,100,0.13,,,0.49,0.000000,,2013-12-29 08:52:00,
2013-12-29 04:02:00,42.0,42.0,-100.00,WNW,295,3.0,8.0,100,0.13,,,0.49,0.000000,,2013-12-29 09:02:00,
2013-12-29 04:12:00,42.0,42.0,-100.00,WNW,295,3.0,8.0,100,0.13,,,0.49,0.000000,,2013-12-29 09:12:00,
2013-12-29 04:43:00,43.0,43.0,-100.00,SE,142,2.0,14.0,100,0.13,,,0.62,0.000000,,2013-12-29 09:43:00,
2013-12-29 04:53:00,43.0,43.0,-100.00,SE,142,2.0,14.0,100,0.13,,,0.62,0.000000,,2013-12-29 09:53:00,
2013-12-29 05:03:00,43.0,43.0,-100.00,SE,142,2.0,14.0,100,0.13,,,0.62,0.000000,,2013-12-29 10:03:00,
2013-12-29 05:13:00,43.0,43.0,-100.00,SE,142,2.0,14.0,100,0.13,,,0.62,0.000000,,2013-12-29 10:13:00,
2013-12-29 05:43:00,41.0,41.0,-100.00,South,187,2.0,6.0,100,0.06,,,0.68,0.000000,,2013-12-29 10:43:00,
2013-12-29 05:53:00,41.0,41.0,-100.00,South,187,2.0,6.0,100,0.06,,,0.68,0.000000,,2013-12-29 10:53:00,
2013-12-29 06:02:00,41.0,41.0,-100.00,South,187,2.0,6.0,100,0.06,,,0.68,0.000000,,2013-12-29 11:02:00,
2013-12-29 06:12:00,41.0,41.0,-100.00,South,187,2.0,6.0,100,0.06,,,0.68,0.000000,,2013-12-29 11:12:00,
2013-12-29 06:43:00,41.0,41.0,-100.00,ENE,63,1.0,4.0,100,0.13,,,0.81,0.000000,,2013-12-29 11:43:00,
2013-12-29 06:53:00,41.0,41.0,-100.00,ENE,63,1.0,4.0,100,0.13,,,0.81,0.000000,,2013-12-29 11:53:00,
2013-12-29 07:02:00,41.0,41.0,-100.00,ENE,63,1.0,4.0,100,0.13,,,0.81,0.000000,,2013-12-29 12:02:00,
2013-12-29 07:11:00,41.0,41.0,-100.00,ENE,63,1.0,4.0,100,0.13,,,0.81,0.000000,,2013-12-29 12:11:00,
2013-12-29 07:42:00,40.0,40.0,-100.00,East,83,2.0,4.0,100,0.14,,,0.95,0.000000,,2013-12-29 12:42:00,
2013-12-29 07:52:00,40.0,40.0,-100.00,East,83,2.0,4.0,100,0.14,,,0.95,0.000000,,2013-12-29 12:52:00,
2013-12-29 08:02:00,40.0,40.0,-100.00,East,83,2.0,4.0,100,0.14,,,0.95,0.000000,,2013-12-29 13:02:00,
2013-12-29 08:11:00,40.0,40.0,-100.00,East,83,2.0,4.0,100,0.14,,,0.95,0.000000,,2013-12-29 13:11:00,
2013-12-29 08:42:00,41.0,41.0,-100.00,ESE,116,2.0,4.0,100,0.08,,,1.03,1.000000,,2013-12-29 13:42:00,
2013-12-29 08:53:00,41.0,41.0,-100.00,ESE,116,2.0,4.0,100,0.08,,,1.03,1.000000,,2013-12-29 13:53:00,
2013-12-29 09:02:00,41.0,41.0,-100.00,ESE,116,2.0,4.0,100,0.08,,,1.03,1.000000,,2013-12-29 14:02:00,
2013-12-29 09:11:00,41.0,41.0,-100.00,ESE,116,2.0,4.0,100,0.08,,,1.03,1.000000,,2013-12-29 14:11:00,
2013-12-29 09:42:00,41.0,41.0,-100.00,SW,224,1.0,4.0,100,0.04,,,1.07,18.000000,,2013-12-29 14:42:00,
2013-12-29 09:52:00,41.0,41.0,-100.00,SW,224,1.0,4.0,100,0.04,,,1.07,18.000000,,2013-12-29 14:52:00,
2013-12-29 10:02:00,41.0,41.0,-100.00,SW,224,1.0,4.0,100,0.04,,,1.07,18.000000,,2013-12-29 15:02:00,
2013-12-29 10:12:00,41.0,41.0,-100.00,SW,224,1.0,4.0,100,0.04,,,1.07,18.000000,,2013-12-29 15:12:00,
2013-12-29 10:44:00,42.0,42.0,-100.00,West,276,1.0,3.0,100,0.00,,,1.07,36.000000,,2013-12-29 15:44:00,
2013-12-29 10:53:00,42.0,42.0,-100.00,West,276,1.0,3.0,100,0.00,,,1.07,36.000000,,2013-12-29 15:53:00,
2013-12-29 11:03:00,42.0,42.0,-100.00,West,276,1.0,3.0,100,0.00,,,1.07,36.000000,,2013-12-29 16:03:00,
2013-12-29 11:13:00,42.0,42.0,-100.00,West,276,1.0,3.0,100,0.00,,,1.07,36.000000,,2013-12-29 16:13:00,
2013-12-29 11:43:00,44.0,44.0,-100.00,NE,55,2.0,5.0,100,0.01,,,1.08,42.000000,,2013-12-29 16:43:00,
2013-12-29 11:53:00,44.0,44.0,-100.00,NE,55,2.0,5.0,100,0.01,,,1.08,42.000000,,2013-12-29 16:53:00,
2013-12-29 12:02:00,44.0,44.0,-100.00,NE,55,2.0,5.0,100,0.01,,,1.08,42.000000,,2013-12-29 17:02:00,
2013-12-29 12:12:00,44.0,44.0,-100.00,NE,55,2.0,5.0,100,0.01,,,1.08,42.000000,,2013-12-29 17:12:00,
2013-12-29 12:42:00,46.0,46.0,-100.00,West,262,5.0,8.0,100,0.05,,,1.13,50.000000,,2013-12-29 17:42:00,
2013-12-29 12:52:00,46.0,46.0,-100.00,West,262,5.0,8.0,100,0.05,,,1.13,50.000000,,2013-12-29 17:52:00,
2013-12-29 13:02:00,46.0,46.0,-100.00,West,262,5.0,8.0,100,0.05,,,1.13,50.000000,,2013-12-29 18:02:00,
2013-12-29 13:12:00,46.0,46.0,-100.00,West,262,5.0,8.0,100,0.05,,,1.13,50.000000,,2013-12-29 18:12:00,
2013-12-29 13:42:00,46.0,41.0,-100.00,SW,230,5.0,14.0,84,0.01,,,1.14,148.000000,,2013-12-29 18:42:00,
2013-12-29 13:53:00,46.0,41.0,-100.00,SW,230,5.0,14.0,84,0.01,,,1.14,148.000000,,2013-12-29 18:53:00,
2013-12-29 14:01:00,46.0,41.0,-100.00,SW,230,5.0,14.0,84,0.01,,,1.14,148.000000,,2013-12-29 19:01:00,
2013-12-29 14:11:00,46.0,41.0,-100.00,SW,230,5.0,14.0,84,0.01,,,1.14,148.000000,,2013-12-29 19:11:00,
2013-12-29 14:43:00,44.0,41.0,-100.00,SW,225,4.0,12.0,90,0.00,,,1.14,37.000000,,2013-12-29 19:43:00,
2013-12-29 14:52:00,44.0,41.0,-100.00,SW,225,4.0,12.0,90,0.00,,,1.14,37.000000,,2013-12-29 19:52:00,
2013-12-29 15:02:00,44.0,41.0,-100.00,SW,225,4.0,12.0,90,0.00,,,1.14,37.000000,,2013-12-29 20:02:00,
2013-12-29 15:11:00,44.0,41.0,-100.00,SW,225,4.0,12.0,90,0.00,,,1.14,37.000000,,2013-12-29 20:11:00,
2013-12-29 15:42:00,44.0,42.0,-100.00,South,183,3.0,13.0,92,0.00,,,1.14,49.000000,,2013-12-29 20:42:00,
2013-12-29 15:53:00,44.0,42.0,-100.00,South,183,3.0,13.0,92,0.00,,,1.14,49.000000,,2013-12-29 20:53:00,
2013-12-29 16:02:00,44.0,42.0,-100.00,South,183,3.0,13.0,92,0.00,,,1.14,49.000000,,2013-12-29 21:02:00,
2013-12-29 16:12:00,44.0,42.0,-100.00,South,183,3.0,13.0,92,0.00,,,1.14,49.000000,,2013-12-29 21:12:00,
2013-12-29 16:43:00,44.0,40.0,-100.00,SSE,157,2.0,10.0,86,0.00,,,1.14,30.000000,,2013-12-29 21:43:00,
2013-12-29 16:54:00,44.0,40.0,-100.00,SSE,157,2.0,10.0,86,0.00,,,1.14,30.000000,,2013-12-29 21:54:00,
2013-12-29 17:03:00,44.0,40.0,-100.00,SSE,157,2.0,10.0,86,0.00,,,1.14,30.000000,,2013-12-29 22:03:00,
2013-12-29 17:12:00,44.0,40.0,-100.00,SSE,157,2.0,10.0,86,0.00,,,1.14,30.000000,,2013-12-29 22:12:00,
2013-12-29 17:42:00,43.0,39.0,-100.00,ESE,113,2.0,11.0,87,0.00,,,1.14,19.000000,,2013-12-29 22:42:00,
2013-12-29 17:52:00,43.0,39.0,-100.00,ESE,113,2.0,11.0,87,0.00,,,1.14,19.000000,,2013-12-29 22:52:00,
2013-12-29 18:02:00,43.0,39.0,-100.00,ESE,113,2.0,11.0,87,0.00,,,1.14,19.000000,,2013-12-29 23:02:00,
2013-12-29 18:12:00,43.0,39.0,-100.00,ESE,113,2.0,11.0,87,0.00,,,1.14,19.000000,,2013-12-29 23:12:00,
2013-12-29 18:42:00,42.0,39.0,-100.00,SSE,155,2.0,10.0,90,0.00,,,1.14,0.000000,,2013-12-29 23:42:00,
2013-12-29 18:53:00,42.0,39.0,-100.00,SSE,155,2.0,10.0,90,0.00,,,1.14,0.000000,,2013-12-29 23:53:00,
2013-12-29 19:02:00,42.0,39.0,-100.00,SSE,155,2.0,10.0,90,0.00,,,1.14,0.000000,,2013-12-30 00:02:00,
2013-12-29 19:12:00,42.0,39.0,-100.00,SSE,155,2.0,10.0,90,0.00,,,1.14,0.000000,,2013-12-30 00:12:00,
2013-12-29 19:42:00,42.0,40.0,-100.00,SSE,159,2.0,6.0,94,0.00,,,1.14,0.000000,,2013-12-30 00:42:00,
2013-12-29 19:53:00,42.0,40.0,-100.00,SSE,159,2.0,6.0,94,0.00,,,1.14,0.000000,,2013-12-30 00:53:00,
2013-12-29 20:02:00,42.0,40.0,-100.00,SSE,159,2.0,6.0,94,0.00,,,1.14,0.000000,,2013-12-30 01:02:00,
2013-12-29 20:12:00,42.0,40.0,-100.00,SSE,159,2.0,6.0,94,0.00,,,1.14,0.000000,,2013-12-30 01:12:00,
2013-12-29 20:43:00,44.0,41.0,-100.00,WSW,257,5.0,11.0,90,0.00,,,1.14,0.000000,,2013-12-30 01:43:00,
2013-12-29 20:52:00,44.0,41.0,-100.00,WSW,257,5.0,11.0,90,0.00,,,1.14,0.000000,,2013-12-30 01:52:00,
2013-12-29 21:02:00,44.0,41.0,-100.00,WSW,257,5.0,11.0,90,0.00,,,1.14,0.000000,,2013-12-30 02:02:00,
2013-12-29 21:12:00,44.0,41.0,-100.00,WSW,257,5.0,11.0,90,0.00,,,1.14,0.000000,,2013-12-30 02:12:00,
2013-12-29 21:42:00,40.0,36.0,-100.00,SE,130,2.0,10.0,84,0.00,,,1.12,0.000000,,2013-12-30 02:42:00,
2013-12-29 21:52:00,40.0,36.0,-100.00,SE,130,2.0,10.0,84,0.00,,,1.12,0.000000,,2013-12-30 02:52:00,
2013-12-29 22:02:00,40.0,36.0,-100.00,SE,130,2.0,10.0,84,0.00,,,1.12,0.000000,,2013-12-30 03:02:00,
2013-12-29 22:12:00,40.0,36.0,-100.00,SE,130,2.0,10.0,84,0.00,,,1.12,0.000000,,2013-12-30 03:12:00,
2013-12-29 22:43:00,42.0,37.0,-100.00,SW,216,4.0,12.0,81,0.00,,,1.07,0.000000,,2013-12-30 03:43:00,
2013-12-29 22:54:00,42.0,37.0,-100.00,SW,216,4.0,12.0,81,0.00,,,1.07,0.000000,,2013-12-30 03:54:00,
2013-12-29 23:03:00,42.0,37.0,-100.00,SW,216,4.0,12.0,81,0.00,,,1.07,0.000000,,2013-12-30 04:03:00,
2013-12-29 23:13:00,42.0,37.0,-100.00,SW,216,4.0,12.0,81,0.00,,,1.07,0.000000,,2013-12-30 04:13:00,
2013-12-29 23:43:00,40.0,36.0,-100.00,ESE,119,2.0,11.0,85,0.00,,,1.02,0.000000,,2013-12-30 04:43:00,
2013-12-29 23:53:00,40.0,36.0,-100.00,ESE,119,2.0,11.0,85,0.00,,,1.02,0.000000,,2013-12-30 04:53:00,